Eastern Shore: Past 24 Hour Conditions

 

Northeast Burgeo Bank - 44255

03:00 AM AST 26 November 2014Buoy position: 47.27N 57.37W
This table is a summary of hourly weather conditions for the past 24 hours.
Date / Time
(AST)
Wind(knots) Wave height(m) Wave period(s) Pressure(kPa) Air tempC) Water tempC)
26 November 2014
3:00 W 14 gust 18 2.9 11.0 101.1 6 5
2:00 W 16 gust 19 2.6 10.0 101.0 7 5
1:00 N/A N/A N/A N/A N/A N/A
0:00 N/A N/A N/A N/A N/A N/A
25 November 2014
23:00 WSW 16 gust 18 3.0 10.0 100.8 7 5
22:00 WSW 18 gust 19 2.9 10.0 100.8 7 5
21:00 SW 19 gust 21 3.0 10.0 100.6 7 5
20:00 SW 19 gust 23 3.0 10.0 100.6 7 5
19:00 SW 19 gust 23 3.1 10.0 100.7 7 5
18:00 SW 19 gust 23 2.9 10.0 100.7 7 4
17:00 SW 21 gust 25 2.9 10.0 100.7 7 4
16:00 SW 19 gust 23 3.5 10.0 100.6 7 4
15:00 SW 21 gust 25 3.2 9.0 100.5 8 4
14:00 SW 21 gust 25 3.4 9.0 100.5 8 4
13:00 SW 21 gust 25 3.5 10.0 100.5 8 4
12:00 N/A N/A N/A N/A N/A N/A
11:00 N/A N/A N/A N/A N/A N/A
10:00 SW 23 gust 27 3.8 8.0 100.6 8 4
9:00 SSW 21 gust 27 4.0 10.0 100.6 8 4
8:00 SSW 25 gust 31 4.4 10.0 100.5 9 4
7:00 SSW 27 gust 33 3.8 10.0 100.5 9 5
6:00 SSW 29 gust 37 4.0 9.0 100.5 10 5
5:00 SSW 31 N/A N/A N/A 10 N/A
4:00 SSW 31 gust 39 3.4 8.0 100.7 10 6
3:00 S 29 gust 35 3.3 8.0 100.8 9 6
 
Map of Atlantic - Newfoundland marine weather areas Southwestern Grand Banks - 44138 Banquereau - 44139 Tail of the Bank - 44140 Nickerson Bank - 44251 Northeast Burgeo Bank - 44255 Blanc-Sablon Airport Cap Whittle Chevery Natashquan Airport Heath Point Miscou Island Grand Étang Ingonish Beach North Mountain St.Paul Island J.A. Douglas McCurdy Sydney Airport Charlottetown Airport East Point North Cape Argentia Bonavista Burgeo Cape Race Corner Brook Daniel's Harbour Englee Ferolle Point La Scie Port aux Basques Rocky Harbour Sagona Island St. Anthony Airport St. John's Int'l Airport St. Lawrence Stephenville Airport Twillingate Winterland Wreckhouse Cartwright Airport Mary's Harbour Grates Cove Pool's Island Marticot Island Long Pond Îles de la Madeleine Airport
Legend: buoyBuoy land stationLand Station